Погода в Светлом

Россия / Камчатский край     53°04′58″N   158°34′13″E
темп.,
°C
ветер,
м/с
пор.,
м/с
влажн.,
%
обл.,
%
осадки,
мм/ч
давл.,
гПа
погр.,
м
29 июля, чт
чт2900:00+18зсз4477100 0.0 100427
03:00+17сз4481100 0.0 100429
06:00+16з4483100 0.2 100630
09:00+17сз3379100 0.1 1006101
12:00+19ю1170100 0.1 1006296
15:00+17юв5582100 0.0 1006178
18:00+16вюв4584100 0.0 1007182
21:00+14вюв2293100 0.0 100751
30 июля, пт
пт3000:00+14ююв1196100 0.4 100831
03:00+14сз0196100 0.3 100721
06:00+14ссз0195100 0.3 100513
09:00+15з0093100 0.2 100538
12:00+15зсз1196100 3.3 100553
15:00+16вюв119370 0.4 1004148
18:00+16ю2293100 0.4 100260
21:00+16ссз1196100 0.7 100216
31 июля, сб
сб3100:00+17сз2393100 1.3 100233
03:00+16ссв1195100 0.4 100216
06:00+14юв6799100 3.1 1003192
09:00+12ююв61095100 7.9 1007507
12:00+12ююв3594100 16.4 1008350
15:00+11юв4690100 5.3 1009456
18:00+11ю3489100 6.5 1009354
21:00+11ю128896 0.2 1010193
1 августа, вс
вс100:00+11вюв018780 0.2 1010103
03:00+10ссз228836 0.0 1009104
06:00+10ссз118626 0.0 100981
09:00+12с018295 0.0 1009187
12:00+14з1476100 0.0 1008442
15:00+16зсз246811 0.0 1007852
18:00+18зюз24660 0.0 1007370
21:00+15юв22782 0.0 100832
2 августа, пн
пн200:00+13ссз11810 0.0 100911
03:00+12зсз45790 0.0 100974
06:00+10сз56800 0.0 1010133
09:00+13сз46723 0.0 1011220
12:00+17сз345547 0.0 1009333
15:00+20зсз364939 0.0 1008626
18:00+20з912565 0.0 1006545
21:00+16з69670 0.0 1007100